Showing default

TOMORROW-S6, 63225

Orbit data source: Space-Track

TOMORROW-S6, 63225 is a payload satellite owned by Tomorrow.io (US) in SSO that was launched on Sat, 15 Mar 2025 UTC via an FALCON 9 launch vehicle from the Air Force Western Test Range (AFWTR). Payload-class satellites include a variety of spacecraft equipped with specific instruments for various scientific and technological missions. These include communications satellites like Starlink; space stations such as the ISS; scientific satellites like the Hubble; Earth observation satellites from companies like Planet Labs, Umbra, and HawkEye 360; GPS; miniature CubeSats for education and research; and military/defense satellites.

Loading next visibility...
Identifier
63225, 2025-052R
Orbit
SSO
Country
Flag of USUS
Related business
Manufacturer
Blue Canyon
Mission
Operational Commercial Weather
Bus & Motor
CUBESAT 6U, Unknown motor
Mass
12 kg wet, 12 kg dry
Launch date (UTC)
2025-03-15 (1 year ago)
Launch vehicle
FALCON 9
Launch site
Air Force Western Test Range (AFWTR)
Object type
Payload
Rocket body
Debris
Shape & HBR
Box + 2 Pan, 1.0 m
Radar Cross Section
0.138 m², Medium (>0.1 m² and < 1m²)

Expand to show TLE details & history
Last TLE update: 11 hours ago

TLE from 11 hours ago
0 TOMORROW-S6
1 63225U 25052R   26221.66204487  .00002462  00000-0  10820-3 0  9990
2 63225  97.3940 113.7378 0003882 326.5549  33.5442 15.22831224 77989
Epoch: 2026-08-09T15:53Z
TLE epoch observation values (Epoch: 2026-08-09T15:53:20.676Z)
Latitude
-0.00005°
Longitude
-82.75417°
Altitude
498.175 km
Speed
7.617 km/s
True Right ascension
07h 34m 57s
True Declination
0° 00' 00"
Sunlit
Object was in daylight at epoch
Visualization orbit readout
Latitude
Unknown
Longitude
Unknown
Altitude
Unknown
Speed
Unknown
Apparent Right ascension
Unknown
Apparent Declination
Unknown
Sunlit
N/A
Visualization observer readout
Local Sidereal Time
16:41:14
Azimuth
Unknown
Elevation
Unknown
Doppler factor
Unknown
Orbital elements
Apogee altitude
496.935 km
Perigee altitude
491.599 km
Semi-major axis
6,872.404 km
Eccentricity
0.00039
Inclination
97.394°
RAAN
113.7378°
Arg. of periapsis
326.5549°
True anomaly
33.56879°
Mean anomaly
33.5442°
Eccentric anomaly
33.55649°
Mean motion
3.80961 °/min
Orbital period
94.5 mins
BSTAR
0.0001082
Loading maneuver chart data...
Computing Atmospheric mass density...
Loading historical data...
Loading historical data...
Loading historical data...
Loading historical data...
Loading historical data...
Loading historical data...
Loading historical data...

Documentation

Showing up to 5 results
|